Suffolk, VA

10:06 AM EDT on May 30, 2017 (GMT -0400)
Suffolk Municipal

Weather History for KSFQ - December, 2011

Change the Weather History Date:

Wednesday, December 7, 2011

  Actual Average Record
Temperature  
Mean Temperature 68 °F -  
Max Temperature 75 °F 55 °F 80 °F (1998)
Min Temperature 62 °F 34 °F 15 °F (1954)
Cooling Degree Days 4    
Growing Degree Days 18 (Base 50)    
Moisture  
Dew Point 63 °F    
Average Humidity 81    
Maximum Humidity 94    
Minimum Humidity 65    
Precipitation  
Precipitation 0.00 in - - ()
Sea Level Pressure  
Sea Level Pressure 29.80 in    
Wind  
Wind Speed 10 mph (South)    
Max Wind Speed 22 mph    
Max Gust Speed 33 mph    
Visibility 10 miles    
Events      
Averages and records for this station are not official NWS values.
T = Trace of Precipitation, MM = Missing Value Source: NWS Daily Summary

Daily Weather History Graph

Daily Weather History Graph

Search for Another Location

Airport or City:

Trip Planner

Search our weather history database for the weather conditions in past years. The results will help you decide how hot, cold, wet, or windy it might be!

Date:

Astronomy

Dec. 07, 2011 Rise Set
Actual Time 7:05 AM EST 4:50 PM EST
Civil Twilight 6:36 AM EST 5:18 PM EST
Nautical Twilight 6:04 AM EST 5:51 PM EST
Astronomical Twilight 5:33 AM EST 6:22 PM EST
Moon 2:48 PM EST (12/7) 4:20 AM EST (12/7)
Length of Visible Light 10h 42m
Length of Day
9h 44m
Waxing Gibbous, 92% of the Moon is Illuminated
Dec 7
Waxing Gibbous
Dec 10
Full
Dec 17
Last Quarter
Dec 24
New
Jan 1
First Quarter

Hourly Weather History & Observations

Time (EST) Temp. Windchill Dew Point Humidity Pressure Visibility Wind Dir Wind Speed Gust Speed Precip Events Conditions
12:15 AM 64.4 °F - 60.8 °F 88% 29.99 in 10.0 mi South 5.8 mph - N/A   Clear
12:35 AM 64.4 °F - 60.8 °F 88% 29.99 in 10.0 mi SSW 5.8 mph - N/A   Clear
12:55 AM 64.4 °F - 60.8 °F 88% 29.98 in 10.0 mi South 6.9 mph - N/A   Scattered Clouds
1:15 AM 64.4 °F - 60.8 °F 88% 29.98 in 10.0 mi South 8.1 mph - N/A   Mostly Cloudy
1:35 AM 64.4 °F - 60.8 °F 88% 29.98 in 10.0 mi South 6.9 mph - N/A   Scattered Clouds
1:55 AM 64.4 °F - 60.8 °F 88% 29.98 in 10.0 mi South 6.9 mph - N/A   Scattered Clouds
2:15 AM 64.4 °F - 60.8 °F 88% 29.98 in 10.0 mi SSW 6.9 mph - N/A   Scattered Clouds
2:35 AM 64.4 °F - 60.8 °F 88% 29.97 in 10.0 mi SSW 8.1 mph - N/A   Scattered Clouds
2:55 AM 64.4 °F - 60.8 °F 88% 29.96 in 10.0 mi South 5.8 mph - N/A   Scattered Clouds
3:15 AM 62.6 °F - 60.8 °F 94% 29.96 in 10.0 mi South 6.9 mph - N/A   Clear
3:35 AM 62.6 °F - 60.8 °F 94% 29.95 in 10.0 mi South 9.2 mph - N/A   Mostly Cloudy
3:55 AM 64.4 °F - 60.8 °F 88% 29.94 in 10.0 mi South 8.1 mph - N/A   Mostly Cloudy
4:15 AM 64.4 °F - 60.8 °F 88% 29.94 in 10.0 mi South 10.4 mph - N/A   Scattered Clouds
4:35 AM 64.4 °F - 60.8 °F 88% 29.93 in 10.0 mi South 8.1 mph - N/A   Scattered Clouds
4:55 AM 64.4 °F - 60.8 °F 88% 29.92 in 10.0 mi South 9.2 mph - N/A   Scattered Clouds
5:15 AM 64.4 °F - 60.8 °F 88% 29.92 in 10.0 mi South 12.7 mph - N/A   Scattered Clouds
5:35 AM 64.4 °F - 60.8 °F 88% 29.92 in 10.0 mi South 9.2 mph 16.1 mph N/A   Scattered Clouds
5:55 AM 64.4 °F - 62.6 °F 94% 29.91 in 10.0 mi South 11.5 mph - N/A   Scattered Clouds
6:15 AM 64.4 °F - 62.6 °F 94% 29.91 in 10.0 mi South 11.5 mph 16.1 mph N/A   Mostly Cloudy
6:35 AM 64.4 °F - 62.6 °F 94% 29.91 in 10.0 mi South 10.4 mph - N/A   Mostly Cloudy
6:55 AM 64.4 °F - 62.6 °F 94% 29.90 in 10.0 mi South 11.5 mph 17.3 mph N/A   Scattered Clouds
7:15 AM 64.4 °F - 62.6 °F 94% 29.90 in 10.0 mi South 10.4 mph 17.3 mph N/A   Clear
7:55 AM 64.4 °F - 62.6 °F 94% 29.90 in 10.0 mi South 10.4 mph - N/A   Mostly Cloudy
8:15 AM 66.2 °F - 62.6 °F 88% 29.90 in 10.0 mi South 11.5 mph 16.1 mph N/A   Scattered Clouds
8:35 AM 66.2 °F - 62.6 °F 88% 29.89 in 10.0 mi South 10.4 mph 17.3 mph N/A   Mostly Cloudy
8:55 AM 66.2 °F - 62.6 °F 88% 29.89 in 10.0 mi South 12.7 mph 19.6 mph N/A   Mostly Cloudy
9:15 AM 68.0 °F - 62.6 °F 83% 29.89 in 10.0 mi SSW 12.7 mph 20.7 mph N/A   Mostly Cloudy
9:35 AM 69.8 °F - 64.4 °F 83% 29.88 in 10.0 mi SSW 13.8 mph 21.9 mph N/A   Scattered Clouds
9:55 AM 69.8 °F - 64.4 °F 83% 29.87 in 10.0 mi South 17.3 mph 23.0 mph N/A   Scattered Clouds
10:15 AM 69.8 °F - 64.4 °F 83% 29.86 in 10.0 mi SSW 12.7 mph 20.7 mph N/A   Scattered Clouds
10:35 AM 71.6 °F - 64.4 °F 78% 29.85 in 10.0 mi SSW 16.1 mph 23.0 mph N/A   Scattered Clouds
10:55 AM 71.6 °F - 64.4 °F 78% 29.83 in 10.0 mi SSW 17.3 mph 27.6 mph N/A   Scattered Clouds
11:15 AM 71.6 °F - 64.4 °F 78% 29.81 in 10.0 mi SSW 11.5 mph 20.7 mph N/A   Scattered Clouds
11:35 AM 71.6 °F - 64.4 °F 78% 29.79 in 10.0 mi SSW 20.7 mph 24.2 mph N/A   Overcast
11:55 AM 73.4 °F - 64.4 °F 73% 29.77 in 10.0 mi SSW 15.0 mph 21.9 mph N/A   Mostly Cloudy
12:15 PM 75.2 °F - 64.4 °F 69% 29.75 in 10.0 mi South 18.4 mph 29.9 mph N/A   Scattered Clouds
12:35 PM 75.2 °F - 64.4 °F 69% 29.74 in 10.0 mi SSW 17.3 mph 26.5 mph N/A   Mostly Cloudy
12:55 PM 75.2 °F - 64.4 °F 69% 29.72 in 10.0 mi SSW 16.1 mph 23.0 mph N/A   Scattered Clouds
1:15 PM 75.2 °F - 64.4 °F 69% 29.71 in 10.0 mi SSW 12.7 mph 26.5 mph N/A   Mostly Cloudy
1:35 PM 75.2 °F - 62.6 °F 65% 29.70 in 10.0 mi SSW 19.6 mph 33.4 mph N/A   Mostly Cloudy
1:55 PM 75.2 °F - 64.4 °F 69% 29.69 in 10.0 mi South 18.4 mph 27.6 mph N/A   Mostly Cloudy
2:15 PM 73.4 °F - 62.6 °F 69% 29.68 in 10.0 mi SSW 20.7 mph 28.8 mph N/A   Mostly Cloudy
2:35 PM 75.2 °F - 64.4 °F 69% 29.66 in 10.0 mi SSW 12.7 mph 24.2 mph N/A   Mostly Cloudy
2:55 PM 75.2 °F - 64.4 °F 69% 29.65 in 10.0 mi South 15.0 mph 23.0 mph N/A   Mostly Cloudy
3:15 PM 75.2 °F - 64.4 °F 69% 29.63 in 10.0 mi SSW 17.3 mph 21.9 mph N/A   Mostly Cloudy
3:35 PM 73.4 °F - 64.4 °F 73% 29.62 in 10.0 mi South 9.2 mph - N/A   Overcast
3:55 PM 73.4 °F - 64.4 °F 73% 29.61 in 10.0 mi South 9.2 mph - N/A   Mostly Cloudy
4:15 PM 73.4 °F - 62.6 °F 69% 29.59 in 10.0 mi South 9.2 mph - N/A   Mostly Cloudy
4:35 PM 73.4 °F - 62.6 °F 69% 29.59 in 10.0 mi South 9.2 mph - N/A   Scattered Clouds
4:55 PM 73.4 °F - 62.6 °F 69% 29.57 in 10.0 mi South 10.4 mph - N/A   Clear
5:15 PM 71.6 °F - 62.6 °F 73% 29.56 in 10.0 mi South 9.2 mph 19.6 mph N/A   Clear
5:35 PM 71.6 °F - 62.6 °F 73% 29.55 in 10.0 mi South 10.4 mph - N/A   Clear
5:55 PM 71.6 °F - 62.6 °F 73% 29.53 in 10.0 mi South 11.5 mph 17.3 mph N/A   Clear
6:15 PM 71.6 °F - 60.8 °F 69% 29.52 in 10.0 mi SSE 11.5 mph 17.3 mph N/A   Clear
6:35 PM 71.6 °F - 62.6 °F 73% 29.49 in 10.0 mi SSE 18.4 mph 25.3 mph N/A   Clear
6:55 PM 71.6 °F - 62.6 °F 73% 29.50 in 10.0 mi South 18.4 mph 26.5 mph N/A   Scattered Clouds
7:15 PM 71.6 °F - 62.6 °F 73% 29.49 in 10.0 mi South 21.9 mph 27.6 mph N/A   Mostly Cloudy
7:35 PM 71.6 °F - 62.6 °F 73% 29.50 in 10.0 mi South 20.7 mph 34.5 mph N/A   Mostly Cloudy
7:55 PM 71.6 °F - 62.6 °F 73% 29.52 in 10.0 mi SSW 18.4 mph 29.9 mph N/A   Overcast
8:15 PM 62.6 °F - 59.0 °F 88% 29.59 in 5.0 mi WSW 24.2 mph 47.2 mph 0.07 in Rain Rain
8:35 PM 60.8 °F - 59.0 °F 94% 29.60 in 10.0 mi WSW 19.6 mph 32.2 mph 0.07 in   Overcast
8:55 PM 60.8 °F - 59.0 °F 94% 29.63 in 10.0 mi West 16.1 mph 24.2 mph 0.07 in   Overcast
9:15 PM 55.4 °F - 51.8 °F 88% 29.65 in 10.0 mi NW 15.0 mph 23.0 mph 0.05 in Rain Light Rain
9:35 PM 53.6 °F - 51.8 °F 94% 29.66 in 10.0 mi NNW 8.1 mph - 0.10 in Rain Rain
9:55 PM 51.8 °F - 48.2 °F 88% 29.67 in 10.0 mi North 8.1 mph 16.1 mph 0.13 in Rain Rain
10:15 PM 51.8 °F - 48.2 °F 88% 29.70 in 10.0 mi NW 5.8 mph - 0.01 in   Overcast
10:35 PM 51.8 °F - 48.2 °F 88% 29.73 in 10.0 mi NW 11.5 mph 17.3 mph 0.01 in Rain Light Rain
11:15 PM 48.2 °F - 46.4 °F 93% 29.78 in 10.0 mi NW 16.1 mph 36.8 mph 0.02 in Rain Rain
11:35 PM 46.4 °F 40.4 °F 44.6 °F 93% 29.81 in 10.0 mi NW 13.8 mph 26.5 mph 0.02 in Rain Light Rain
11:55 PM 46.4 °F 40.4 °F 44.6 °F 93% 29.83 in 10.0 mi NW 13.8 mph 23.0 mph 0.02 in   Overcast